YU7OR-2 Weather Reports


time (UTC)temp
C
wind
direction
speed
KPH
gust
KPH
rain 1hr
cm
rain 24hr
cm
rain mn
cm
humidity
%
barometer
mb
20260507060648 16 93 0.0 3.2 0.00 0.00 0.00 99 1011.5
20260507060218 16 93 0.0 3.2 0.00 0.00 0.00 99 1011.5
20260507055812 16 84 0.0 3.2 0.00 0.00 0.00 99 1011.3
20260507055348 16 139 0.0 3.2 0.00 0.00 0.00 99 1011.3
20260507054848 16 120 0.0 3.2 0.00 0.00 0.00 99 1011.2
20260507054408 16 111 0.0 3.2 0.10 0.00 0.00 99 1011.4
20260507053938 16 108 0.0 3.2 0.10 0.00 0.00 99 1011.4
20260507053513 16 135 0.0 3.2 0.28 0.00 0.00 99 1011.2
20260507053038 16 141 0.0 8.0 0.20 0.00 0.00 96 1011.3
20260507052558 16 141 0.0 8.0 0.20 0.00 0.00 96 1011.3
20260507052138 16 146 0.0 8.0 0.23 0.00 0.00 90 1011.2
20260507051641 16 88 0.0 3.2 0.10 0.00 0.00 86 1011.1
20260507051238 16 123 0.0 3.2 0.10 0.00 0.00 84 1011.0
20260507050813 16 0.0 0.0 0.05 0.00 0.00 83 1010.8
20260507050338 16 0.0 0.0 0.00 0.00 0.00 82 1011.1
20260507045938 16 0.0 0.0 0.00 0.00 0.00 81 1010.8
20260507045453 16 0.0 0.0 0.00 0.00 0.00 80 1010.9
20260507045018 16 154 0.0 3.2 0.00 0.00 0.00 78 1010.8
20260507044553 16 154 0.0 3.2 0.00 0.00 0.00 78 1010.8
20260507044108 16 124 0.0 3.2 0.00 0.00 0.00 77 1010.8
20260507043618 16 113 0.0 3.2 0.00 0.00 0.00 76 1010.8
20260507043122 16 113 0.0 3.2 0.00 0.00 0.00 76 1010.8
20260507042628 16 0.0 0.0 0.00 0.00 0.00 76 1010.8
20260507042201 16 0.0 0.0 0.00 0.00 0.00 76 1010.7
20260507041722 16 166 0.0 3.2 0.00 0.00 0.00 77 1010.5
20260507041238 16 162 0.0 3.2 0.00 0.00 0.00 78 1010.5
20260507040813 16 166 0.0 3.2 0.00 0.00 0.00 79 1010.3
20260507040353 16 188 0.0 3.2 0.00 0.00 0.00 80 1010.3
20260507035925 16 153 0.0 8.0 0.00 0.00 0.00 82 1010.3
20260507035442 16 159 0.0 3.2 0.00 0.00 0.00 82 1010.3
20260507035003 16 153 0.0 3.2 0.00 0.00 0.00 82 1010.2
20260507034558 16 172 0.0 3.2 0.00 0.00 0.00 82 1010.2
20260507034118 16 122 0.0 3.2 0.00 0.00 0.00 82 1010.2
20260507033622 16 122 0.0 3.2 0.00 0.00 0.00 82 1010.2
20260507033222 16 156 0.0 3.2 0.00 0.00 0.00 82 1010.0
20260507032748 16 0.0 0.0 0.00 0.00 0.00 81 1010.0
20260507032253 16 0.0 0.0 0.00 0.00 0.00 80 1009.8
20260507031823 16 0.0 0.0 0.00 0.00 0.00 80 1009.8
20260507031343 16 144 0.0 3.2 0.00 0.00 0.00 79 1010.1
20260507030928 16 144 0.0 3.2 0.00 0.00 0.00 79 1010.1
20260507030521 16 176 0.0 3.2 0.00 0.00 0.00 78 1010.0
20260507030048 16 168 0.0 8.0 0.00 0.00 0.00 78 1010.0
20260507025613 16 127 0.0 3.2 0.00 0.00 0.00 77 1010.0
20260507025205 16 127 0.0 3.2 0.00 0.00 0.00 77 1010.0
20260507024758 16 163 0.0 3.2 0.00 0.00 0.00 77 1009.8
20260507024353 16 174 0.0 3.2 0.00 0.00 0.00 77 1009.8
20260507023858 16 221 0.0 8.0 0.00 0.00 0.00 76 1009.9
20260507023453 16 221 0.0 8.0 0.00 0.00 0.00 76 1009.9
20260507023028 16 196 0.0 8.0 0.00 0.00 0.00 76 1009.8
20260507022553 16 196 0.0 8.0 0.00 0.00 0.00 76 1009.8
20260507022133 16 164 0.0 3.2 0.00 0.00 0.00 76 1009.8
20260507021713 16 185 0.0 3.2 0.00 0.00 0.00 75 1009.7
20260507021218 16 177 0.0 8.0 0.00 0.00 0.00 75 1009.7
20260507020758 16 121 0.0 8.0 0.00 0.00 0.00 74 1009.7
20260507020333 16 192 0.0 8.0 0.00 0.00 0.00 74 1009.4
20260507015903 16 177 0.0 3.2 0.00 0.00 0.00 74 1009.6
20260507015448 16 178 0.0 3.2 0.00 0.00 0.00 74 1009.4
20260507015018 16 0.0 0.0 0.00 0.00 0.00 74 1009.4
20260507014558 16 185 0.0 3.2 0.00 0.00 0.00 74 1009.3
20260507014100 16 0.0 0.0 0.00 0.00 0.00 74 1009.4
20260507013621 16 193 0.0 3.2 0.00 0.00 0.00 75 1009.4
20260507013128 16 193 0.0 3.2 0.00 0.00 0.00 75 1009.4
20260507012638 16 166 0.0 3.2 0.00 0.00 0.00 75 1009.4
20260507012218 16 181 0.0 3.2 0.00 0.00 0.00 75 1009.3
20260507011733 16 179 0.0 3.2 0.00 0.00 0.00 74 1009.4
20260507011248 16 0.0 0.0 0.00 0.00 0.00 74 1009.2
20260507010838 16 0.0 0.0 0.00 0.00 0.00 74 1009.2
20260507010433 16 192 0.0 3.2 0.00 0.00 0.00 74 1009.4
20260507005938 16 0.0 0.0 0.00 0.00 0.00 74 1009.3
20260507005458 16 159 0.0 3.2 0.00 0.00 0.00 73 1009.1
20260507005028 16 0.0 0.0 0.00 0.00 0.00 74 1009.3
20260507004528 16 0.0 0.0 0.00 0.00 0.00 73 1009.1
20260507004123 16 0.0 0.0 0.00 0.00 0.00 73 1009.1
20260507003722 16 0.0 0.0 0.00 0.00 0.00 73 1009.1
20260507003313 16 196 0.0 3.2 0.00 0.00 0.00 73 1009.1
20260507002823 16 198 0.0 3.2 0.00 0.00 0.00 73 1009.1
20260507002421 16 198 0.0 3.2 0.00 0.00 0.00 72 1009.1
20260507001958 16 215 0.0 3.2 0.00 0.00 0.00 73 1009.1
20260507001513 16 220 0.0 8.0 0.00 0.00 0.00 73 1009.1
20260507001053 16 230 0.0 8.0 0.00 0.00 0.00 74 1009.1
20260507000614 16 230 0.0 8.0 0.00 0.00 0.00 74 1009.1
20260507000118 16 237 0.0 12.9 0.00 0.00 0.00 73 1009.1
20260506235643 16 218 0.0 8.0 0.00 0.00 0.00 72 1009.1
20260506235153 16 218 0.0 8.0 0.00 0.00 0.00 72 1009.1
20260506234721 16 220 0.0 8.0 0.00 0.00 0.00 72 1009.1
20260506234228 16 203 0.0 3.2 0.00 0.00 0.00 74 1009.1
20260506233818 16 212 0.0 8.0 0.00 0.00 0.00 74 1009.1
20260506233418 16 220 0.0 8.0 0.00 0.00 0.00 74 1009.1
20260506233013 16 218 0.0 3.2 0.00 0.00 0.00 74 1009.1
20260506232529 17 180 0.0 3.2 0.00 0.00 0.00 74 1009.1
20260506232028 17 207 0.0 3.2 0.00 0.00 0.00 73 1009.1
20260506231533 17 213 0.0 3.2 0.00 0.00 0.00 72 1008.9
20260506231108 17 213 0.0 3.2 0.00 0.00 0.00 72 1008.9
20260506230618 17 255 0.0 8.0 0.00 0.00 0.00 72 1008.8
20260506230148 17 189 0.0 3.2 0.00 0.00 0.00 72 1008.8
20260506225653 17 218 0.0 8.0 0.00 0.00 0.00 71 1008.9
20260506225253 17 218 0.0 8.0 0.00 0.00 0.00 71 1008.9
20260506224848 17 252 0.0 12.9 0.00 0.00 0.00 71 1008.9
20260506224352 17 241 0.0 12.9 0.00 0.00 0.00 71 1009.0
20260506223941 17 215 0.0 8.0 0.00 0.00 0.00 70 1009.1
20260506223448 17 264 0.0 3.2 0.00 0.00 0.00 70 1008.8
20260506223008 17 228 0.0 8.0 0.00 0.00 0.00 69 1009.1
20260506222558 17 247 0.0 12.9 0.00 0.00 0.00 68 1009.0
20260506222058 18 272 0.0 12.9 0.00 0.00 0.00 68 1008.9
20260506221634 18 272 0.0 12.9 0.00 0.00 0.00 68 1008.9
20260506221224 18 271 0.0 12.9 0.00 0.00 0.00 67 1008.9
20260506220818 18 264 0.0 12.9 0.00 0.00 0.00 67 1008.9
20260506220334 18 281 0.0 12.9 0.00 0.00 0.00 67 1008.8
20260506215844 18 236 0.0 8.0 0.00 0.00 0.00 66 1008.6
20260506215349 18 278 0.0 20.9 0.00 0.00 0.00 66 1008.6
20260506214929 18 304 0.0 16.1 0.00 0.00 0.00 66 1008.6
20260506214444 18 261 0.0 12.9 0.00 0.00 0.00 66 1008.6
20260506213949 18 284 0.0 16.1 0.00 0.00 0.00 66 1008.8
20260506213539 18 279 0.0 12.9 0.00 0.00 0.00 65 1008.8
20260506213054 18 276 0.0 16.1 0.00 0.00 0.00 65 1008.9
20260506212644 18 276 0.0 16.1 0.00 0.00 0.00 65 1008.9
20260506212229 18 263 0.0 16.1 0.00 0.00 0.00 65 1008.9
20260506211809 18 263 0.0 16.1 0.00 0.00 0.00 65 1008.9
20260506211349 18 266 0.0 16.1 0.00 0.00 0.00 64 1009.1
20260506210949 18 254 0.0 16.1 0.00 0.00 0.00 64 1009.1
20260506210449 19 261 0.0 12.9 0.00 0.00 0.00 64 1009.1
20260506210029 19 241 0.0 24.1 0.00 0.00 0.00 63 1009.1
20260506205528 19 252 0.0 24.1 0.00 0.00 0.00 62 1009.3
20260506205114 19 264 0.0 24.1 0.00 0.00 0.00 61 1009.5
20260506204634 19 264 0.0 24.1 0.00 0.00 0.00 61 1009.5
20260506204234 19 259 0.0 24.1 0.00 0.00 0.00 59 1009.7
20260506203738 19 247 0.0 20.9 0.00 0.00 0.00 58 1009.4
20260506203249 19 251 0.0 32.2 0.00 0.00 0.00 57 1009.1
20260506202824 19 239 0.0 24.1 0.00 0.00 0.00 56 1009.1
20260506202334 19 247 0.0 37.0 0.00 0.00 0.00 55 1009.1
20260506201849 19 276 0.0 20.9 0.00 0.00 0.00 54 1009.0
20260506201414 19 257 0.0 20.9 0.00 0.00 0.00 54 1008.3
20260506200919 20 213 0.0 3.2 0.00 0.00 0.00 54 1008.2
20260506200434 20 220 0.0 3.2 0.00 0.00 0.00 50 1008.0
20260506200027 20 0.0 0.0 0.00 0.00 0.00 49 1007.8
20260506195604 20 0.0 0.0 0.00 0.00 0.00 49 1007.8
20260506195118 20 0.0 0.0 0.00 0.00 0.00 49 1007.8
20260506194618 20 0.0 0.0 0.00 0.00 0.00 49 1007.8
20260506194118 20 0.0 0.0 0.00 0.00 0.00 48 1007.7
20260506193654 20 0.0 0.0 0.00 0.00 0.00 48 1007.7
20260506193238 20 102 0.0 3.2 0.00 0.00 0.00 48 1007.9
20260506192814 20 0.0 0.0 0.00 0.00 0.00 48 1007.8
20260506192401 20 0.0 0.0 0.00 0.00 0.00 47 1007.7
20260506191954 21 0.0 0.0 0.00 0.00 0.00 47 1007.6
20260506191504 21 0.0 0.0 0.00 0.00 0.00 46 1007.5
20260506191054 21 0.0 0.0 0.00 0.00 0.00 46 1007.5
20260506190609 21 0.0 0.0 0.00 0.00 0.00 46 1007.5
20260506190114 21 0.0 0.0 0.00 0.00 0.00 45 1007.5
20260506185704 21 0.0 0.0 0.00 0.00 0.00 45 1007.7
20260506185234 21 0.0 0.0 0.00 0.00 0.00 46 1007.7
20260506184804 21 0.0 0.0 0.00 0.00 0.00 45 1007.7
20260506184304 21 0.0 0.0 0.00 0.00 0.00 45 1007.7
20260506183819 21 0.0 0.0 0.00 0.00 0.00 45 1007.5
20260506183344 21 0.0 0.0 0.00 0.00 0.00 46 1007.5
20260506182914 22 0.0 0.0 0.00 0.00 0.00 46 1007.5
20260506182444 22 0.0 0.0 0.00 0.00 0.00 45 1007.5
20260506181954 22 0.0 0.0 0.00 0.00 0.00 44 1007.4
20260506181514 22 157 0.0 3.2 0.00 0.00 0.00 45 1007.4
20260506181109 22 0.0 0.0 0.00 0.00 0.00 45 1007.5
20260506180644 22 0.0 0.0 0.00 0.00 0.00 45 1007.5
20260506180149 22 0.0 0.0 0.00 0.00 0.00 44 1007.4
20260506175739 23 0.0 0.0 0.00 0.00 0.00 44 1007.4
20260506175338 23 0.0 0.0 0.00 0.00 0.00 45 1007.2
20260506174909 23 0.0 0.0 0.00 0.00 0.00 44 1007.4
20260506174438 23 0.0 0.0 0.00 0.00 0.00 45 1007.5
20260506173949 23 0.0 0.0 0.00 0.00 0.00 45 1007.4
20260506173529 24 0.0 0.0 0.00 0.00 0.00 45 1007.3
20260506173118 24 0.0 0.0 0.00 0.00 0.00 45 1007.3
20260506172654 24 0.0 0.0 0.00 0.00 0.00 45 1007.3
20260506172234 25 0.0 0.0 0.00 0.00 0.00 44 1007.5
20260506171809 25 0.0 0.0 0.00 0.00 0.00 44 1007.5
20260506171319 25 0.0 0.0 0.00 0.00 0.00 44 1007.3
20260506170820 25 0.0 0.0 0.00 0.00 0.00 44 1007.5
20260506170404 25 0.0 0.0 0.00 0.00 0.00 43 1007.5
20260506165904 25 0.0 0.0 0.00 0.00 0.00 43 1007.5
20260506165458 26 0.0 0.0 0.00 0.00 0.00 43 1007.5
20260506164959 26 153 0.0 3.2 0.00 0.00 0.00 43 1007.5
20260506164504 26 77 0.0 8.0 0.00 0.00 0.00 43 1007.5
20260506164049 26 118 0.0 3.2 0.00 0.00 0.00 43 1007.5
20260506163554 26 123 0.0 3.2 0.00 0.00 0.00 43 1007.5
20260506163114 26 113 0.0 3.2 0.00 0.00 0.00 43 1007.5
20260506162629 26 100 0.0 3.2 0.00 0.00 0.00 43 1007.7
20260506162204 26 100 0.0 3.2 0.00 0.00 0.00 43 1007.7
20260506161749 27 171 0.0 3.2 0.00 0.00 0.00 43 1007.6
20260506161304 27 86 0.0 8.0 0.00 0.00 0.00 43 1007.8
20260506160904 27 179 0.0 3.2 0.00 0.00 0.00 43 1007.8
20260506160436 27 44 0.0 8.0 0.00 0.00 0.00 43 1007.8
20260506160004 27 190 0.0 3.2 0.00 0.00 0.00 43 1007.9
20260506155534 26 199 0.0 8.0 0.00 0.00 0.00 43 1007.9
20260506155104 26 209 0.0 8.0 0.00 0.00 0.00 43 1008.1
20260506154658 26 209 0.0 8.0 0.00 0.00 0.00 43 1008.1
20260506154234 26 169 0.0 8.0 0.00 0.00 0.00 43 1007.9
20260506153759 26 190 0.0 8.0 0.00 0.00 0.00 43 1008.0
20260506153344 27 163 0.0 8.0 0.00 0.00 0.00 43 1008.0
20260506152918 27 162 0.0 8.0 0.00 0.00 0.00 43 1008.4
20260506152504 27 140 0.0 3.2 0.00 0.00 0.00 43 1008.3
20260506152038 27 120 0.0 8.0 0.00 0.00 0.00 43 1008.3
20260506151559 27 178 0.0 8.0 0.00 0.00 0.00 44 1008.3
20260506151119 27 168 0.0 12.9 0.00 0.00 0.00 43 1008.2
20260506150709 27 168 0.0 12.9 0.00 0.00 0.00 43 1008.2
20260506150249 27 179 0.0 3.2 0.00 0.00 0.00 45 1008.4
20260506145838 26 211 0.0 3.2 0.00 0.00 0.00 43 1008.3
20260506145409 26 203 0.0 12.9 0.00 0.00 0.00 43 1008.4
20260506145009 26 183 0.0 12.9 0.00 0.00 0.00 43 1008.5
20260506144544 26 138 0.0 8.0 0.00 0.00 0.00 43 1008.5
20260506144049 27 167 0.0 8.0 0.00 0.00 0.00 43 1008.5
20260506143618 27 167 0.0 8.0 0.00 0.00 0.00 43 1008.5
20260506143124 27 168 0.0 16.1 0.00 0.00 0.00 43 1008.5
20260506142658 27 121 0.0 8.0 0.00 0.00 0.00 43 1008.5
20260506142254 27 121 0.0 8.0 0.00 0.00 0.00 43 1008.5
20260506141838 27 170 0.0 3.2 0.00 0.00 0.00 43 1008.7
20260506141438 27 164 0.0 16.1 0.00 0.00 0.00 43 1008.7
20260506141024 26 87 0.0 12.9 0.00 0.00 0.00 44 1008.7
20260506140609 26 197 0.0 12.9 0.00 0.00 0.00 43 1008.8
20260506140129 26 171 0.0 8.0 0.00 0.00 0.00 43 1008.7
20260506135709 26 171 0.0 8.0 0.00 0.00 0.00 43 1008.7
20260506135234 26 153 0.0 8.0 0.00 0.00 0.00 43 1008.7
20260506134734 26 95 0.0 12.9 0.00 0.00 0.00 43 1008.9
20260506134334 26 55 0.0 16.1 0.00 0.00 0.00 43 1008.9
20260506133844 26 55 0.0 16.1 0.00 0.00 0.00 43 1008.9
20260506133434 26 67 0.0 8.0 0.00 0.00 0.00 43 1009.0
20260506132938 26 94 0.0 20.9 0.00 0.00 0.00 43 1009.1
20260506132509 26 193 0.0 8.0 0.00 0.00 0.00 43 1009.1
20260506132018 26 194 0.0 12.9 0.00 0.00 0.00 43 1009.1
20260506131549 26 146 0.0 16.1 0.00 0.00 0.00 43 1009.1
20260506131114 26 146 0.0 16.1 0.00 0.00 0.00 43 1009.1
20260506130624 26 175 0.0 12.9 0.00 0.00 0.00 43 1009.1
20260506130134 26 58 0.0 16.1 0.00 0.00 0.00 43 1009.3
20260506125654 26 58 0.0 16.1 0.00 0.00 0.00 43 1009.3
20260506125218 26 112 0.0 16.1 0.00 0.00 0.00 43 1009.4
20260506124738 26 164 0.0 3.2 0.00 0.00 0.00 43 1009.5
20260506124309 25 166 0.0 16.1 0.00 0.00 0.00 43 1009.6
20260506123818 25 163 0.0 12.9 0.00 0.00 0.00 43 1009.6
20260506123414 25 76 0.0 16.1 0.00 0.00 0.00 43 1009.5
20260506122954 26 136 0.0 12.9 0.00 0.00 0.00 43 1009.6
20260506122517 26 149 0.0 12.9 0.00 0.00 0.00 43 1009.7
20260506122054 25 69 0.0 12.9 0.00 0.00 0.00 43 1009.8
20260506121614 25 69 0.0 12.9 0.00 0.00 0.00 43 1009.8
20260506121149 25 72 0.0 12.9 0.00 0.00 0.00 43 1010.1
20260506120718 25 127 0.0 16.1 0.00 0.00 0.00 43 1010.2
20260506120238 25 174 0.0 16.1 0.00 0.00 0.00 43 1009.9
20260506115749 25 129 0.0 12.9 0.00 0.00 0.00 43 1009.9
20260506115258 25 111 0.0 8.0 0.00 0.00 0.00 43 1010.2
20260506114809 25 77 0.0 16.1 0.00 0.00 0.00 43 1010.2
20260506114329 25 125 0.0 8.0 0.00 0.00 0.00 43 1010.2
20260506113901 25 111 0.0 12.9 0.00 0.00 0.00 43 1010.2
20260506113459 25 70 0.0 16.1 0.00 0.00 0.00 43 1010.3
20260506113029 25 67 0.0 8.0 0.00 0.00 0.00 43 1010.4
20260506112558 25 83 0.0 16.1 0.00 0.00 0.00 43 1010.3
20260506112129 25 83 0.0 16.1 0.00 0.00 0.00 43 1010.3
20260506111644 25 120 0.0 16.1 0.00 0.00 0.00 43 1010.4
20260506111234 25 104 0.0 8.0 0.00 0.00 0.00 43 1010.5
20260506110829 25 88 0.0 12.9 0.00 0.00 0.00 43 1010.6
20260506110354 25 67 0.0 16.1 0.00 0.00 0.00 43 1010.5
20260506105909 25 141 0.0 3.2 0.00 0.00 0.00 43 1010.5
20260506105434 25 109 0.0 16.1 0.00 0.00 0.00 43 1010.6
20260506104938 25 80 0.0 16.1 0.00 0.00 0.00 43 1010.7
20260506104519 25 136 0.0 20.9 0.00 0.00 0.00 44 1010.8
20260506104038 25 172 0.0 16.1 0.00 0.00 0.00 43 1010.6
20260506103619 25 191 0.0 20.9 0.00 0.00 0.00 43 1010.8
20260506103214 25 191 0.0 20.9 0.00 0.00 0.00 43 1010.8
20260506102744 25 179 0.0 12.9 0.00 0.00 0.00 44 1010.7
20260506102248 25 177 0.0 12.9 0.00 0.00 0.00 44 1010.8
20260506101754 25 218 0.0 8.0 0.00 0.00 0.00 44 1010.8
20260506101344 25 195 0.0 8.0 0.00 0.00 0.00 43 1010.9
20260506100914 25 195 0.0 8.0 0.00 0.00 0.00 43 1010.9
20260506100418 24 158 0.0 16.1 0.00 0.00 0.00 44 1011.0
20260506095954 24 65 0.0 12.9 0.00 0.00 0.00 44 1011.0
20260506095509 24 187 0.0 16.1 0.00 0.00 0.00 43 1011.2
20260506095029 24 215 0.0 8.0 0.00 0.00 0.00 44 1011.2
20260506094604 24 169 0.0 12.9 0.00 0.00 0.00 44 1011.1
20260506094122 24 169 0.0 12.9 0.00 0.00 0.00 44 1011.1
20260506093714 24 93 0.0 3.2 0.00 0.00 0.00 44 1011.3
20260506093234 24 197 0.0 8.0 0.00 0.00 0.00 44 1011.3
20260506092814 24 203 0.0 12.9 0.00 0.00 0.00 44 1011.2
20260506092329 24 207 0.0 12.9 0.00 0.00 0.00 43 1011.3
20260506091849 24 248 0.0 8.0 0.00 0.00 0.00 43 1011.5
20260506091354 23 244 0.0 16.1 0.00 0.00 0.00 44 1011.4
20260506090854 23 230 0.0 20.9 0.00 0.00 0.00 44 1011.4
20260506090434 23 206 0.0 12.9 0.00 0.00 0.00 44 1011.3
20260506090009 23 136 0.0 8.0 0.00 0.00 0.00 44 1011.3
20260506085524 23 186 0.0 12.9 0.00 0.00 0.00 45 1011.4
20260506085054 23 186 0.0 12.9 0.00 0.00 0.00 45 1011.4
20260506084649 23 234 0.0 12.9 0.00 0.00 0.00 45 1011.2
20260506084154 23 140 0.0 16.1 0.00 0.00 0.00 44 1011.5
20260506083659 23 213 0.0 8.0 0.00 0.00 0.00 44 1011.3
20260506083234 23 179 0.0 12.9 0.00 0.00 0.00 44 1011.3
20260506082829 23 176 0.0 3.2 0.00 0.00 0.00 44 1011.4
20260506082329 23 152 0.0 12.9 0.00 0.00 0.00 45 1011.2
20260506081914 22 116 0.0 12.9 0.00 0.00 0.00 45 1011.2
20260506081454 22 158 0.0 8.0 0.00 0.00 0.00 45 1011.3
20260506080959 22 151 0.0 8.0 0.00 0.00 0.00 45 1011.2
20260506080510 22 82 0.0 12.9 0.00 0.00 0.00 46 1011.2
20260506073439 21 129 0.0 12.9 0.00 0.00 0.00 46 1011.1
20260506072954 21 121 0.0 16.1 0.00 0.00 0.00 47 1011.2
20260506072529 21 114 0.0 12.9 0.00 0.00 0.00 47 1011.2
20260506072029 21 175 0.0 8.0 0.00 0.00 0.00 47 1011.3
20260506071618 21 175 0.0 8.0 0.00 0.00 0.00 47 1011.3
20260506071124 21 75 0.0 12.9 0.00 0.00 0.00 48 1011.4
20260506070644 20 99 0.0 12.9 0.00 0.00 0.00 48 1011.5
20260506070234 20 111 0.0 12.9 0.00 0.00 0.00 48 1011.5
20260506062249 17 160 0.0 8.0 0.00 0.00 0.00 55 1011.4
20260506061829 17 98 0.0 3.2 0.00 0.00 0.00 55 1011.2
20260506061339 17 114 0.0 3.2 0.00 0.00 0.00 54 1011.3